Regional Weather Roundup
Issued by NWS Newport/Morehead, NC

Current Version | Previous Version | Graphics & Text | Print | Product List | Glossary Off
Versions: 1 2 3 4 5 6 7 8 9 10 11 12 13 14 15 16 17 18 19 20 21 22 23 24 25 26 27 28 29 30 31 32 33 34 35 36 37 38 39 40 41 42 43 44 45 46 47 48 49 50

839
ASUS42 KMHX 190825
RWRMHX
WEATHER ROUNDUP FOR EASTERN NORTH CAROLINA
NATIONAL WEATHER SERVICE NEWPORT/MOREHEAD CITY NC
300 AM EST THU JAN 19 2017

NOTE: "FAIR" INDICATES FEW OR NO CLOUDS BELOW 12,000 FEET
WITH NO SIGNIFICANT WEATHER AND/OR OBSTRUCTIONS TO VISIBILITY

NCZ015>017-031-032-045>047-102-103-190900-
NORTH COAST

CITY           SKY/WX    TMP DP  RH WIND       PRES   REMARKS
EDENTON        CLOUDY    40  39  93 CALM      30.06F
ELIZABETH CITY CLOUDY    41  39  93 NW3       30.05S
KITTY HAWK     NOT AVBL
MANTEO         CLOUDY    43  43 100 N5        30.05R

$$

NCZ045>047-081-094-103-104-190900-
CENTRAL COAST

CITY           SKY/WX    TMP DP  RH WIND       PRES   REMARKS
FRISCO         PTCLDY    48  44  86 VRB5      30.03F

$$

NCZ095-097-098-100-101-190900-
SOUTHERN COAST

CITY           SKY/WX    TMP DP  RH WIND       PRES   REMARKS
BEAUFORT       PTCLDY    46  42  86 NE3       30.03S
CEDAR ISLAND   NOT AVBL
JACKSONVILLE   CLEAR     42  42 100 W3        30.04S
PINEY ISLAND   CLOUDY   N/A N/A N/A N6        30.03F
WILMINGTON     CLEAR     42  42 100 CALM      30.05S


$$

NCZ011>013-027>030-043-044-078>080-089-090>093-098-190900-
COASTAL PLAIN

CITY           SKY/WX    TMP DP  RH WIND       PRES   REMARKS
AHOSKIE          N/A     40  39  96 N3        30.07S
CLINTON        CLEAR     41  40  95 CALM      30.07S
ELIZABETHTOWN  CLEAR     42  39  88 CALM      30.06S
GOLDSBORO      CLOUDY    40  40  99 CALM      30.04S
GREENVILLE     LGT SNOW  41  41 100 CALM      30.08R
HAVELOCK       CLOUDY    42  41  96 CALM      30.05S
KENANSVILLE    CLEAR     37  36  93 CALM      30.07S
KINSTON        CLOUDY    37  37  98 CALM      30.06S
NEW BERN       FOG       40  40 100 CALM      30.06R VSB 1/2
RICHLANDS      CLEAR     36  35  96 CALM      30.06R
ROCKY MOUNT    PTCLDY    39  37  92 CALM      30.06R
WASHINGTON     PTCLDY    38  38  99 CALM        N/A
WHITEVILLE     CLEAR     43  41  93 CALM      30.06R

$$

AMZ130-135-150-152-154-156-158-170-250-252-270-ANZ085-086-088-633-658-670-190900-
MARINE OBSERVATIONS

STATION/POSITION TIME  TEMP    WIND        PRES    WAVE   SWELL
                       AIR SEA DIR/SP/G            HT/PER HT/PER
                 (UTC) (F)     (DEG/KT/KT) (MB)    (FT/S) (FT/S)
CHESAPEAKE LIGHT NOT AVBL
64 E VA BEACH    0750   50 57  360/ 21/ 23 1015.9    7/ 7
DUCK             0800   46 45  310/  7/  8 1016.8
2 E DUCK         0800      45                N/A     3/ 5
OREGON INLET     0800   44 50  330/  4/  5 1017.0
13E OREGON INLT  NOT AVBL
HATTERAS CG      0800   49 55  340/ 11/ 12 1016.6
DIAMOND BUOY     0750   53 75  360/ 14/ 19 1016.5    5/ 8   3/ 8
CAPE LOOKOUT     0800   51      10/  9/ 10 1016.2
BEAUFORT LAB     0800   47 51   20/  4/  5 1016.0
30 SE NEW RVR IN 0808   57 62   50/ 10/ 14 1017.0
30 SE NEW RVR IN 0743      62                N/A     5/ 6
27 SE WRIGHTSVLE 0708   60 68   70/ 12/ 17 1016.4
5 SE WRIGHTSVLE  NOT AVBL
225 S CAPE HAT   0750   67 72   10/ 16/ 19 1014.7    8/ 7   5/14
41 SE CHARLESTON 0750   68 71   20/  2/  2 1015.6    2/ 5   2/ 5

$$




USA.gov is the U.S. government's official web portal to all federal, state and local government web resources and services.